User: anonymous
Location: Santa Barbara
(34.4500°N, 119.7700°W)
Time: 00:59:46
(UTC-07:00)
Language:

Cosmos 1892 Rocket - Orbit

View from above orbital plane
View from above orbital plane
View from above satellite
View from above satellite

Ground track
Ground track

The orbit data is extracted from the following two-line orbital elements,

1 18422U 87088B   14294.78974868  .00000731  00000-0  87855-4 0  3874
2 18422 082.5136 005.0409 0020252 035.8121 103.5767 14.82475017458165
Epoch (UTC): 21 October 2014 18:57:14
Eccentricity: 0.0020252
inclination: 82.5136°
perigee height: 607 km
apogee height: 636 km
right ascension of ascending node: 5.0409°
argument of perigee: 35.8121°
revolutions per day: 14.82475017
mean anomaly at epoch: 103.5767°
orbit number at epoch: 45816

The dashed part of the orbit path shows where the satellite is in the earth's shadow,  

DLR